Regional Weather Roundup
Issued by NWS Goodland, KS

Home | Current Version | Previous Version | Text Only | Print | Product List | Glossary Off
Versions: 1 2 3 4 5 6 7 8 9 10 11 12 13 14 15 16 17 18 19 20 21 22 23 24 25 26 27 28 29 30 31 32 33 34 35 36 37 38 39 40 41 42 43 44 45 46 47 48 49 50

000
ASUS43 KGLD 201059
RWRGLD

GOODLAND FORECAST AREA HOURLY WEATHER ROUNDUP
NATIONAL WEATHER SERVICE GOODLAND KS
400 AM MST FRI JAN 20 2017

...OFFICIAL OBSERVATIONS...

CITY           SKY/WX    TMP DP  RH WIND       PRES   REMARKS
GOODLAND KS    FOG       30  29  96 S10       29.46F VSB 3/4
HILL CITY KS   FOG       38  38 100 CALM      29.50F VSB 1/4
IMPERIAL NEB   FOG       28  28 100 CALM      29.48S VSB 3/4
MCCOOK NEB     CLOUDY    34  34 100 CALM      29.49F FOG
AKRON CO       CLOUDY    30  22  72 N8        29.44F
BURLINGTON CO  CLOUDY    30  28  92 W5        29.44
LIMON CO       CLOUDY    29  25  85 W6        29.44F
$$

...UNOFFICIAL OBSERVATIONS...

CITY           SKY/WX    TMP DP  RH WIND       PRES   REMARKS
NORTON KS      FOG       36  34  93 CALM      29.50S VSB 1/2
SHARON SPRINGS   N/A     32  31  96 CALM        N/A
KIT CARSON CO    N/A     27  25  90 MISG        N/A
YUMA CO        FAIR      23  19  86 NW7       29.45F
$$




USA.gov is the U.S. government's official web portal to all federal, state and local government web resources and services.